#timestamp,LO_Frequency,Hit,StdDev 
1672506015.3,286047007.6,P
1672506035.1,286047003.0,P
1672506036.0,286047003.0,N
1672506055.8,286047001.7,N
1672506075.7,286047005.5,N
1672506095.5,286047008.3,Y
1672506115.3,286047005.1,P
1672506135.2,286047002.5,P
1672506155.0,286047003.5,P
1672506155.9,286047003.5,Y
1672506175.8,286046997.6,P
1672506195.6,286046993.7,N
1672506215.4,286046991.6,N
1672506235.3,286046991.6,N
1672506255.1,286046993.1,N
1672506275.8,286046987.2,N
1672506295.7,286046988.1,N
1672506315.5,286046992.4,N
1672506335.4,286046993.7,N
1672506355.2,286046996.6,N
1672506375.0,286046995.7,N
1672506375.9,286046995.7,N
1672506395.8,286046996.3,N
1672506415.6,286046991.5,N
1672506435.5,286046987.3,Y
1672506455.3,286046993.9,P
1672506475.1,286046999.2,P
1672506495.9,286046999.2,N
1672506515.7,286046993.7,N
1672506535.5,286046992.8,N
1672506555.4,286046994.2,N
1672506575.2,286047000.5,N
1672506595.0,286047000.6,N
1672506595.9,286047000.6,N
1672506615.8,286046995.4,N
1672506635.6,286046993.9,N
1672506655.5,286046999.4,N
1672506675.3,286046997.4,N
1672506695.1,286047000.1,N
1672506715.9,286047003.3,N
1672506735.7,286047004.4,N
1672506755.5,286047005.3,N
1672506775.4,286047008.3,N
1672506795.2,286047011.4,N
1672506815.1,286047004.8,N
1672506816.0,286047004.8,N
1672506835.8,286047011.8,N
1672506855.6,286047006.9,N
1672506875.5,286047006.4,N
1672506895.3,286047002.7,N
1672506915.2,286047002.1,N
1672506935.9,286047001.8,N
1672506955.7,286047002.9,N
1672506975.6,286047003.3,N
1672506995.4,286047003.5,N
1672507015.2,286047008.8,N
1672507035.1,286047011.2,N
1672507036.0,286047011.2,N
1672507055.8,286047015.1,N
1672507075.7,286047011.6,N
1672507095.5,286047006.5,N
1672507115.3,286047001.5,N
1672507135.2,286047006.0,N
1672507155.9,286046999.6,N
1672507175.7,286046993.4,N
1672507195.6,286046993.0,N
1672507215.4,286046997.9,N
1672507235.2,286046999.8,N
1672507255.1,286046996.8,N
1672507256.0,286046996.8,N
1672507275.8,286047003.4,N
1672507295.7,286046999.9,N
1672507315.5,286047005.1,N
1672507335.3,286047009.0,N
1672507355.2,286047010.5,N
1672507375.0,286047008.5,N
1672507375.9,286047008.5,N
1672507395.7,286047007.7,N
1672507415.6,286047007.3,N
1672507435.4,286047004.5,N
1672507455.3,286047001.8,N
1672507475.1,286046997.1,N
1672507476.0,286046997.1,N
1672507495.8,286046997.2,N
1672507515.7,286046997.3,N
1672507535.5,286046997.6,N
1672507555.3,286046998.0,N
1672507575.2,286046992.9,N
1672507595.0,286046990.2,N
1672507595.9,286046990.2,N
1672507615.8,286046990.5,N
1672507635.6,286046989.0,N
1672507655.4,286046989.8,N
1672507675.3,286046984.9,N
1672507695.1,286046987.9,N
1672507715.8,286046992.1,N
1672507735.7,286046999.6,N
1672507755.5,286047000.6,N
1672507775.4,286047003.0,N
1672507795.2,286046998.9,N
1672507815.0,286046997.9,N
1672507815.9,286046997.9,N
1672507835.8,286047004.4,N
1672507855.6,286047006.1,N
1672507875.4,286047012.4,N
1672507895.3,286047013.7,N
1672507915.1,286047012.7,N
1672507935.9,286047008.5,N
1672507955.7,286047004.6,N
1672507975.5,286047002.4,N
1672507995.4,286047001.5,N
1672508015.2,286047002.6,N
1672508035.0,286046995.5,N
1672508035.9,286046995.5,N
1672508055.8,286046991.8,N
1672508075.6,286046989.4,N
1672508095.5,286046991.5,N
1672508115.3,286046986.9,N
1672508135.1,286046985.6,N
1672508155.9,286046985.8,N
1672508175.7,286046989.8,N
1672508195.5,286046992.0,N
1672508215.4,286046997.0,N
1672508235.2,286046990.1,N
1672508255.1,286046988.0,N
1672508256.0,286046988.0,N
1672508275.8,286046982.9,N
1672508295.6,286046982.9,N
1672508315.5,286046984.4,N
1672508335.3,286046987.1,N
1672508355.1,286046988.9,N
1672508375.9,286046986.2,N
1672508395.7,286046990.7,N
1672508415.5,286046991.6,N
1672508435.4,286046985.8,N
1672508455.2,286046987.4,N
1672508475.1,286046986.6,N
1672508476.0,286046986.6,N
1672508495.8,286046985.0,N
1672508515.6,286046984.5,N
1672508535.5,286046988.4,N
1672508555.3,286046986.8,Y
1672508575.1,286046994.1,P
1672508595.9,286046992.5,N
1672508615.7,286046992.7,P
1672508635.6,286046988.7,Y
1672508655.4,286046996.0,P
1672508675.2,286046996.4,N
1672508695.1,286047001.1,N
1672508696.0,286047001.1,N
1672508715.8,286047002.4,N
1672508735.6,286047005.8,N
1672508755.5,286047003.3,N
1672508775.3,286047000.5,N
1672508795.2,286047002.7,N
1672508815.9,286047004.1,N
1672508835.7,286046999.8,N
1672508855.6,286046998.1,N
1672508875.4,286047001.0,N
1672508895.6,286046998.8,N
1672508915.5,286046998.7,N
1672508935.3,286046999.2,N
1672508955.1,286047002.1,N
1672508975.9,286047007.2,N
1672508995.7,286047006.2,N
1672509015.6,286047004.1,N
1672509035.4,286047003.2,N
1672509055.2,286047007.3,N
1672509075.1,286047003.1,N
1672509076.0,286047003.1,N
1672509095.8,286047003.2,N
1672509115.6,286047000.2,N
1672509135.5,286047002.6,N
1672509155.3,286047004.3,N
1672509175.1,286046999.7,N
1672509195.9,286047003.9,N
1672509215.7,286047003.8,N
1672509235.6,286047003.2,N
1672509255.4,286047000.6,N
1672509275.2,286047000.0,N
1672509295.1,286047002.2,N
1672509296.0,286047002.2,N
1672509315.8,286047001.2,N
1672509335.6,286046996.7,N
1672509355.5,286046998.5,N
1672509375.3,286047001.8,N
1672509395.2,286047007.4,N
1672509415.9,286047003.0,N
1672509435.7,286047009.0,Y
1672509455.6,286047004.6,P
1672509475.4,286047003.2,N
1672509495.2,286047003.2,P
1672509515.1,286047003.9,Y
1672509516.0,286047003.9,P
1672509535.8,286046996.8,P
1672509555.7,286047002.2,N
1672509575.5,286046997.1,N
1672509595.3,286046997.4,N
